Time,TemperatureF,DewpointF,PressureIn,WindDirection,WindDirectionDegrees,WindSpeedMPH,WindSpeedGustMPH,Humidity,HourlyPrecipIn,Conditions,Clouds,dailyrainin,SoftwareType,DateUTC
2013-06-03 00:05:00,53.7,49.0,30.08,North,5,0.0,0.0,84,0.00,,,0.00,Wunderground v.1.15,2013-06-03 05:05:00,
2013-06-03 00:15:00,53.6,48.9,30.08,North,5,0.0,0.0,84,0.00,,,0.00,Wunderground v.1.15,2013-06-03 05:15:00,
2013-06-03 00:20:00,53.5,48.8,30.08,North,5,0.0,0.0,84,0.00,,,0.00,Wunderground v.1.15,2013-06-03 05:20:00,
2013-06-03 00:30:00,53.4,48.7,30.08,North,360,0.0,0.0,84,0.00,,,0.00,Wunderground v.1.15,2013-06-03 05:30:00,
2013-06-03 00:35:00,53.4,48.7,30.08,North,360,0.0,0.0,84,0.00,,,0.00,Wunderground v.1.15,2013-06-03 05:35:00,
2013-06-03 00:45:00,53.2,48.5,30.08,North,5,1.0,1.0,84,0.00,,,0.00,Wunderground v.1.15,2013-06-03 05:45:00,
2013-06-03 00:50:00,53.2,48.2,30.08,North,360,1.0,1.0,83,0.00,,,0.00,Wunderground v.1.15,2013-06-03 05:50:00,
2013-06-03 01:00:00,53.1,48.1,30.08,North,360,0.0,0.0,83,0.00,,,0.00,Wunderground v.1.15,2013-06-03 06:00:00,
2013-06-03 01:10:00,53.0,48.3,30.08,NNW,342,0.0,0.0,84,0.00,,,0.00,Wunderground v.1.15,2013-06-03 06:10:00,
2013-06-03 01:15:00,53.0,48.0,30.08,North,9,0.0,0.0,83,0.00,,,0.00,Wunderground v.1.15,2013-06-03 06:15:00,
2013-06-03 01:25:00,52.9,48.2,30.08,North,5,0.0,0.0,84,0.00,,,0.00,Wunderground v.1.15,2013-06-03 06:25:00,
2013-06-03 01:30:00,52.9,47.6,30.08,North,9,0.0,0.0,82,0.00,,,0.00,Wunderground v.1.15,2013-06-03 06:30:00,
2013-06-03 01:40:00,52.7,47.0,30.08,NNE,22,0.0,0.0,81,0.00,,,0.00,Wunderground v.1.15,2013-06-03 06:40:00,
2013-06-03 01:45:00,52.6,46.9,30.08,NNE,22,0.0,0.0,81,0.00,,,0.00,Wunderground v.1.15,2013-06-03 06:45:00,
2013-06-03 01:55:00,52.6,46.9,30.08,NNE,23,0.0,0.0,81,0.00,,,0.00,Wunderground v.1.15,2013-06-03 06:55:00,
2013-06-03 02:05:00,52.6,46.9,30.08,NNE,24,0.0,0.0,81,0.00,,,0.00,Wunderground v.1.15,2013-06-03 07:05:00,
2013-06-03 02:10:00,52.5,46.8,30.08,NNE,24,0.0,0.0,81,0.00,,,0.00,Wunderground v.1.15,2013-06-03 07:10:00,
2013-06-03 02:20:00,52.6,47.3,30.07,NNE,24,0.0,0.0,82,0.00,,,0.00,Wunderground v.1.15,2013-06-03 07:20:00,
2013-06-03 02:30:00,52.5,47.5,30.07,NNE,24,0.0,0.0,83,0.00,,,0.00,Wunderground v.1.15,2013-06-03 07:30:00,
2013-06-03 02:40:00,52.5,47.5,30.07,NNE,24,0.0,0.0,83,0.00,,,0.00,Wunderground v.1.15,2013-06-03 07:40:00,
2013-06-03 02:45:00,52.5,47.5,30.07,NNE,22,0.0,2.0,83,0.00,,,0.00,Wunderground v.1.15,2013-06-03 07:45:00,
2013-06-03 02:50:00,52.5,47.5,30.07,NNE,22,0.0,0.0,83,0.00,,,0.00,Wunderground v.1.15,2013-06-03 07:50:00,
2013-06-03 03:00:00,52.5,47.5,30.07,NNE,16,1.0,1.0,83,0.00,,,0.00,Wunderground v.1.15,2013-06-03 08:00:00,
2013-06-03 03:10:00,52.4,47.1,30.06,North,11,0.0,2.0,82,0.00,,,0.00,Wunderground v.1.15,2013-06-03 08:10:00,
2013-06-03 03:15:00,52.3,47.0,30.06,North,360,1.0,2.0,82,0.00,,,0.00,Wunderground v.1.15,2013-06-03 08:15:00,
2013-06-03 03:25:00,52.2,46.5,30.06,North,5,3.0,4.0,81,0.00,,,0.00,Wunderground v.1.15,2013-06-03 08:25:00,
2013-06-03 03:35:00,52.1,46.8,30.06,North,5,2.0,5.0,82,0.00,,,0.00,Wunderground v.1.15,2013-06-03 08:35:00,
2013-06-03 03:45:00,52.0,46.3,30.06,North,11,2.0,3.0,81,0.00,,,0.00,Wunderground v.1.15,2013-06-03 08:45:00,
2013-06-03 03:50:00,51.9,46.3,30.07,North,5,1.0,3.0,81,0.00,,,0.00,Wunderground v.1.15,2013-06-03 08:50:00,
2013-06-03 04:00:00,51.7,46.7,30.06,North,360,1.0,1.0,83,0.00,,,0.00,Wunderground v.1.15,2013-06-03 09:00:00,
2013-06-03 04:10:00,51.5,46.5,30.07,North,5,2.0,2.0,83,0.00,,,0.00,Wunderground v.1.15,2013-06-03 09:10:00,
2013-06-03 04:15:00,51.4,46.4,30.07,NNW,342,2.0,2.0,83,0.00,,,0.00,Wunderground v.1.15,2013-06-03 09:15:00,
2013-06-03 04:25:00,51.1,46.1,30.07,North,5,2.0,2.0,83,0.00,,,0.00,Wunderground v.1.15,2013-06-03 09:25:00,
2013-06-03 04:30:00,50.9,45.9,30.07,North,5,1.0,1.0,83,0.00,,,0.00,Wunderground v.1.15,2013-06-03 09:30:00,
2013-06-03 04:40:00,50.5,45.5,30.07,NNE,14,0.0,0.0,83,0.00,,,0.00,Wunderground v.1.15,2013-06-03 09:40:00,
2013-06-03 04:45:00,50.3,45.3,30.07,North,360,1.0,2.0,83,0.00,,,0.00,Wunderground v.1.15,2013-06-03 09:45:00,
2013-06-03 04:55:00,50.0,45.4,30.08,North,360,1.0,2.0,84,0.00,,,0.00,Wunderground v.1.15,2013-06-03 09:55:00,
2013-06-03 05:00:00,49.8,44.8,30.08,North,360,1.0,1.0,83,0.00,,,0.00,Wunderground v.1.15,2013-06-03 10:00:00,
2013-06-03 05:10:00,49.4,44.8,30.08,North,360,0.0,0.0,84,0.00,,,0.00,Wunderground v.1.15,2013-06-03 10:10:00,
2013-06-03 05:15:00,49.3,44.7,30.08,North,360,0.0,0.0,84,0.00,,,0.00,Wunderground v.1.15,2013-06-03 10:15:00,
2013-06-03 05:25:00,49.0,44.4,30.09,North,9,0.0,0.0,84,0.00,,,0.00,Wunderground v.1.15,2013-06-03 10:25:00,
2013-06-03 05:30:00,48.9,44.6,30.09,North,9,0.0,0.0,85,0.00,,,0.00,Wunderground v.1.15,2013-06-03 10:30:00,
2013-06-03 05:40:00,48.6,44.3,30.09,North,5,0.0,0.0,85,0.00,,,0.00,Wunderground v.1.15,2013-06-03 10:40:00,
2013-06-03 05:50:00,48.5,44.5,30.09,North,9,1.0,1.0,86,0.00,,,0.00,Wunderground v.1.15,2013-06-03 10:50:00,
2013-06-03 05:55:00,48.5,44.5,30.09,North,360,1.0,1.0,86,0.00,,,0.00,Wunderground v.1.15,2013-06-03 10:55:00,
2013-06-03 06:05:00,48.4,44.4,30.10,North,360,1.0,1.0,86,0.00,,,0.00,Wunderground v.1.15,2013-06-03 11:05:00,
2013-06-03 06:10:00,48.4,44.4,30.10,North,360,0.0,0.0,86,0.00,,,0.00,Wunderground v.1.15,2013-06-03 11:10:00,
2013-06-03 06:20:00,48.4,44.4,30.10,North,360,0.0,0.0,86,0.00,,,0.00,Wunderground v.1.15,2013-06-03 11:20:00,
2013-06-03 06:25:00,48.4,44.7,30.10,North,360,0.0,0.0,87,0.00,,,0.00,Wunderground v.1.15,2013-06-03 11:25:00,
2013-06-03 06:35:00,48.5,44.8,30.11,North,360,0.0,0.0,87,0.00,,,0.00,Wunderground v.1.15,2013-06-03 11:35:00,
2013-06-03 06:45:00,48.7,44.7,30.11,North,5,2.0,3.0,86,0.00,,,0.00,Wunderground v.1.15,2013-06-03 11:45:00,
2013-06-03 06:50:00,48.9,44.9,30.11,North,5,1.0,2.0,86,0.00,,,0.00,Wunderground v.1.15,2013-06-03 11:50:00,
2013-06-03 07:00:00,49.5,45.2,30.11,North,10,3.0,5.0,85,0.00,,,0.00,Wunderground v.1.15,2013-06-03 12:00:00,
2013-06-03 07:05:00,50.0,45.4,30.11,NNW,341,3.0,5.0,84,0.00,,,0.00,Wunderground v.1.15,2013-06-03 12:05:00,
2013-06-03 07:15:00,51.6,46.6,30.11,North,360,2.0,4.0,83,0.00,,,0.00,Wunderground v.1.15,2013-06-03 12:15:00,
2013-06-03 07:20:00,52.6,46.9,30.11,NW,319,2.0,4.0,81,0.00,,,0.00,Wunderground v.1.15,2013-06-03 12:20:00,
2013-06-03 07:30:00,54.3,47.2,30.12,North,5,2.0,2.0,77,0.00,,,0.00,Wunderground v.1.15,2013-06-03 12:30:00,
2013-06-03 07:35:00,55.3,47.5,30.11,North,5,1.0,2.0,75,0.00,,,0.00,Wunderground v.1.15,2013-06-03 12:35:00,
2013-06-03 07:45:00,57.1,48.2,30.12,NNE,28,2.0,3.0,72,0.00,,,0.00,Wunderground v.1.15,2013-06-03 12:45:00,
2013-06-03 07:55:00,58.6,47.3,30.13,NNE,23,2.0,5.0,66,0.00,,,0.00,Wunderground v.1.15,2013-06-03 12:55:00,
2013-06-03 08:00:00,59.3,47.1,30.13,North,9,3.0,3.0,64,0.00,,,0.00,Wunderground v.1.15,2013-06-03 13:00:00,
2013-06-03 08:10:00,60.4,47.7,30.13,North,9,3.0,3.0,63,0.00,,,0.00,Wunderground v.1.15,2013-06-03 13:10:00,
2013-06-03 08:15:00,60.9,47.4,30.13,North,9,3.0,3.0,61,0.00,,,0.00,Wunderground v.1.15,2013-06-03 13:15:00,
2013-06-03 08:25:00,61.8,46.4,30.14,NNE,19,3.0,5.0,57,0.00,,,0.00,Wunderground v.1.15,2013-06-03 13:25:00,
2013-06-03 08:30:00,62.1,46.7,30.14,NNW,337,3.0,3.0,57,0.00,,,0.00,Wunderground v.1.15,2013-06-03 13:30:00,
2013-06-03 08:40:00,62.7,48.2,30.15,North,360,3.0,3.0,59,0.00,,,0.00,Wunderground v.1.15,2013-06-03 13:40:00,
2013-06-03 08:50:00,63.6,47.6,30.15,North,360,2.0,2.0,56,0.00,,,0.00,Wunderground v.1.15,2013-06-03 13:50:00,
2013-06-03 08:55:00,64.0,48.5,30.15,NNW,338,2.0,2.0,57,0.00,,,0.00,Wunderground v.1.15,2013-06-03 13:55:00,
2013-06-03 09:05:00,64.6,47.1,30.15,North,5,3.0,5.0,53,0.00,,,0.00,Wunderground v.1.15,2013-06-03 14:05:00,
2013-06-03 09:10:00,64.9,46.8,30.15,North,5,3.0,3.0,52,0.00,,,0.00,Wunderground v.1.15,2013-06-03 14:10:00,
2013-06-03 09:20:00,65.4,47.8,30.15,NNE,13,3.0,3.0,53,0.00,,,0.00,Wunderground v.1.15,2013-06-03 14:20:00,
2013-06-03 09:25:00,65.7,45.5,30.15,North,11,2.0,3.0,48,0.00,,,0.00,Wunderground v.1.15,2013-06-03 14:25:00,
2013-06-03 09:35:00,66.1,46.9,30.15,NNE,25,2.0,3.0,50,0.00,,,0.00,Wunderground v.1.15,2013-06-03 14:35:00,
2013-06-03 09:40:00,66.2,47.5,30.15,North,5,2.0,4.0,51,0.00,,,0.00,Wunderground v.1.15,2013-06-03 14:40:00,
2013-06-03 09:50:00,66.5,48.3,30.15,North,11,3.0,3.0,52,0.00,,,0.00,Wunderground v.1.15,2013-06-03 14:50:00,
2013-06-03 10:00:00,66.9,48.2,30.14,NNW,341,2.0,4.0,51,0.00,,,0.00,Wunderground v.1.15,2013-06-03 15:00:00,
2013-06-03 10:05:00,67.0,47.7,30.14,NE,34,2.0,4.0,50,0.00,,,0.00,Wunderground v.1.15,2013-06-03 15:05:00,
2013-06-03 10:15:00,67.5,47.1,30.14,NNE,14,2.0,2.0,48,0.00,,,0.00,Wunderground v.1.15,2013-06-03 15:15:00,
2013-06-03 10:20:00,67.6,49.3,30.14,North,5,3.0,3.0,52,0.00,,,0.00,Wunderground v.1.15,2013-06-03 15:20:00,
2013-06-03 10:30:00,67.4,46.5,30.14,ENE,78,3.0,3.0,47,0.00,,,0.00,Wunderground v.1.15,2013-06-03 15:30:00,
2013-06-03 10:35:00,67.1,47.8,30.14,ENE,58,4.0,7.0,50,0.00,,,0.00,Wunderground v.1.15,2013-06-03 15:35:00,
2013-06-03 10:45:00,66.7,50.0,30.13,ENE,58,3.0,4.0,55,0.00,,,0.00,Wunderground v.1.15,2013-06-03 15:45:00,
2013-06-03 10:50:00,66.7,45.8,30.13,ENE,67,3.0,3.0,47,0.00,,,0.00,Wunderground v.1.15,2013-06-03 15:50:00,
2013-06-03 11:00:00,66.6,49.9,30.13,ENE,61,3.0,3.0,55,0.00,,,0.00,Wunderground v.1.15,2013-06-03 16:00:00,
2013-06-03 11:10:00,66.8,46.5,30.13,ENE,69,4.0,4.0,48,0.00,,,0.00,Wunderground v.1.15,2013-06-03 16:10:00,
2013-06-03 11:15:00,67.0,48.3,30.13,East,80,4.0,6.0,51,0.00,,,0.00,Wunderground v.1.15,2013-06-03 16:15:00,
2013-06-03 11:25:00,67.5,51.2,30.12,NE,48,1.0,5.0,56,0.00,,,0.00,Wunderground v.1.15,2013-06-03 16:25:00,
2013-06-03 11:30:00,67.7,50.5,30.13,ENE,67,2.0,2.0,54,0.00,,,0.00,Wunderground v.1.15,2013-06-03 16:30:00,
2013-06-03 11:40:00,67.6,51.8,30.12,NNE,19,3.0,3.0,57,0.00,,,0.00,Wunderground v.1.15,2013-06-03 16:40:00,
2013-06-03 11:45:00,67.7,46.2,30.12,East,94,3.0,3.0,46,0.00,,,0.00,Wunderground v.1.15,2013-06-03 16:45:00,
2013-06-03 11:55:00,68.1,51.3,30.12,NE,54,2.0,2.0,55,0.00,,,0.00,Wunderground v.1.15,2013-06-03 16:55:00,
2013-06-03 12:05:00,68.3,49.5,30.12,ENE,73,2.0,3.0,51,0.00,,,0.00,Wunderground v.1.15,2013-06-03 17:05:00,
2013-06-03 12:10:00,68.3,51.0,30.12,ENE,62,2.0,3.0,54,0.00,,,0.00,Wunderground v.1.15,2013-06-03 17:10:00,
2013-06-03 12:20:00,68.7,50.9,30.11,East,80,3.0,9.0,53,0.00,,,0.00,Wunderground v.1.15,2013-06-03 17:20:00,
2013-06-03 12:25:00,68.5,49.1,30.11,NE,54,3.0,9.0,50,0.00,,,0.00,Wunderground v.1.15,2013-06-03 17:25:00,
2013-06-03 12:35:00,68.9,52.1,30.10,ENE,60,2.0,5.0,55,0.00,,,0.00,Wunderground v.1.15,2013-06-03 17:35:00,
2013-06-03 12:40:00,69.1,49.7,30.10,ENE,61,3.0,3.0,50,0.00,,,0.00,Wunderground v.1.15,2013-06-03 17:40:00,
2013-06-03 12:50:00,69.1,51.2,30.11,NNE,30,2.0,3.0,53,0.00,,,0.00,Wunderground v.1.15,2013-06-03 17:50:00,
2013-06-03 12:55:00,69.2,50.8,30.10,NE,44,2.0,3.0,52,0.00,,,0.00,Wunderground v.1.15,2013-06-03 17:55:00,
2013-06-03 13:05:00,69.1,49.7,30.10,NE,44,2.0,7.0,50,0.00,,,0.00,Wunderground v.1.15,2013-06-03 18:05:00,
2013-06-03 13:15:00,69.1,50.2,30.10,ENE,60,3.0,7.0,51,0.00,,,0.00,Wunderground v.1.15,2013-06-03 18:15:00,
2013-06-03 13:20:00,68.9,50.5,30.10,NE,54,3.0,3.0,52,0.00,,,0.00,Wunderground v.1.15,2013-06-03 18:20:00,
2013-06-03 13:30:00,68.9,51.6,30.10,ENE,65,2.0,2.0,54,0.00,,,0.00,Wunderground v.1.15,2013-06-03 18:30:00,
2013-06-03 13:35:00,69.0,51.7,30.10,NE,39,1.0,2.0,54,0.00,,,0.00,Wunderground v.1.15,2013-06-03 18:35:00,
2013-06-03 13:45:00,69.1,50.7,30.09,NE,53,3.0,4.0,52,0.00,,,0.00,Wunderground v.1.15,2013-06-03 18:45:00,
2013-06-03 13:50:00,69.3,50.4,30.09,NE,49,2.0,3.0,51,0.00,,,0.00,Wunderground v.1.15,2013-06-03 18:50:00,
2013-06-03 14:00:00,69.8,48.7,30.09,NE,44,2.0,2.0,47,0.00,,,0.00,Wunderground v.1.15,2013-06-03 19:00:00,
2013-06-03 14:05:00,69.8,46.9,30.09,ENE,72,2.0,4.0,44,0.00,,,0.00,Wunderground v.1.15,2013-06-03 19:05:00,
2013-06-03 14:15:00,69.7,51.8,30.08,ENE,74,1.0,2.0,53,0.00,,,0.00,Wunderground v.1.15,2013-06-03 19:15:00,
2013-06-03 14:25:00,70.2,51.2,30.08,NE,55,2.0,2.0,51,0.00,,,0.00,Wunderground v.1.15,2013-06-03 19:25:00,
2013-06-03 14:30:00,70.1,50.0,30.08,ENE,70,2.0,2.0,49,0.00,,,0.00,Wunderground v.1.15,2013-06-03 19:30:00,
2013-06-03 14:40:00,69.6,52.2,30.08,NNE,27,2.0,2.0,54,0.00,,,0.00,Wunderground v.1.15,2013-06-03 19:40:00,
2013-06-03 14:45:00,69.5,48.4,30.08,ENE,71,2.0,2.0,47,0.00,,,0.00,Wunderground v.1.15,2013-06-03 19:45:00,
2013-06-03 14:55:00,69.2,49.8,30.08,ENE,61,1.0,5.0,50,0.00,,,0.00,Wunderground v.1.15,2013-06-03 19:55:00,
2013-06-03 15:00:00,69.1,50.7,30.08,ENE,63,1.0,1.0,52,0.00,,,0.00,Wunderground v.1.15,2013-06-03 20:00:00,
2013-06-03 15:10:00,69.0,50.1,30.08,ENE,71,1.0,1.0,51,0.00,,,0.00,Wunderground v.1.15,2013-06-03 20:10:00,
2013-06-03 15:20:00,69.0,50.1,30.08,ENE,67,2.0,2.0,51,0.00,,,0.00,Wunderground v.1.15,2013-06-03 20:20:00,
2013-06-03 15:25:00,68.6,48.7,30.07,ENE,78,3.0,4.0,49,0.00,,,0.00,Wunderground v.1.15,2013-06-03 20:25:00,
2013-06-03 15:30:00,68.3,49.5,30.07,ENE,70,2.0,2.0,51,0.00,,,0.00,Wunderground v.1.15,2013-06-03 20:30:00,
2013-06-03 15:40:00,68.1,48.8,30.07,ENE,59,2.0,2.0,50,0.00,,,0.00,Wunderground v.1.15,2013-06-03 20:40:00,
2013-06-03 15:50:00,67.9,51.1,30.07,ENE,62,1.0,3.0,55,0.00,,,0.00,Wunderground v.1.15,2013-06-03 20:50:00,
2013-06-03 16:00:00,67.7,50.5,30.07,ENE,67,2.0,2.0,54,0.00,,,0.00,Wunderground v.1.15,2013-06-03 21:00:00,
2013-06-03 16:05:00,67.6,47.8,30.07,ENE,78,2.0,2.0,49,0.00,,,0.00,Wunderground v.1.15,2013-06-03 21:05:00,
2013-06-03 16:10:00,67.5,50.8,30.07,NE,47,1.0,1.0,55,0.00,,,0.00,Wunderground v.1.15,2013-06-03 21:10:00,
2013-06-03 16:20:00,67.6,50.4,30.07,ENE,57,1.0,1.0,54,0.00,,,0.00,Wunderground v.1.15,2013-06-03 21:20:00,
2013-06-03 16:30:00,67.4,51.2,30.06,NE,42,1.0,1.0,56,0.00,,,0.00,Wunderground v.1.15,2013-06-03 21:30:00,
2013-06-03 16:35:00,67.5,49.3,30.06,ENE,57,1.0,1.0,52,0.00,,,0.00,Wunderground v.1.15,2013-06-03 21:35:00,
2013-06-03 16:45:00,67.4,49.7,30.06,NE,54,0.0,0.0,53,0.00,,,0.00,Wunderground v.1.15,2013-06-03 21:45:00,
2013-06-03 16:50:00,67.3,49.1,30.06,ENE,60,1.0,1.0,52,0.00,,,0.00,Wunderground v.1.15,2013-06-03 21:50:00,
2013-06-03 17:00:00,66.9,47.6,30.06,North,360,2.0,3.0,50,0.00,,,0.00,Wunderground v.1.15,2013-06-03 22:00:00,
2013-06-03 17:05:00,66.8,48.6,30.06,ENE,63,2.0,3.0,52,0.00,,,0.00,Wunderground v.1.15,2013-06-03 22:05:00,
2013-06-03 17:15:00,66.8,49.1,30.06,East,82,2.0,2.0,53,0.00,,,0.00,Wunderground v.1.15,2013-06-03 22:15:00,
2013-06-03 17:25:00,66.7,49.5,30.06,ENE,62,2.0,3.0,54,0.00,,,0.00,Wunderground v.1.15,2013-06-03 22:25:00,
2013-06-03 17:30:00,66.6,48.4,30.06,ENE,63,2.0,3.0,52,0.00,,,0.00,Wunderground v.1.15,2013-06-03 22:30:00,
2013-06-03 17:40:00,66.5,47.3,30.06,ENE,77,2.0,2.0,50,0.00,,,0.00,Wunderground v.1.15,2013-06-03 22:40:00,
2013-06-03 17:45:00,66.4,47.7,30.06,ENE,62,1.0,2.0,51,0.00,,,0.00,Wunderground v.1.15,2013-06-03 22:45:00,
2013-06-03 17:55:00,66.3,47.1,30.06,ENE,60,1.0,1.0,50,0.00,,,0.00,Wunderground v.1.15,2013-06-03 22:55:00,
2013-06-03 18:05:00,66.3,48.7,30.06,ENE,61,1.0,1.0,53,0.00,,,0.00,Wunderground v.1.15,2013-06-03 23:05:00,
2013-06-03 18:10:00,66.3,48.1,30.06,ENE,66,2.0,2.0,52,0.00,,,0.00,Wunderground v.1.15,2013-06-03 23:10:00,
2013-06-03 18:20:00,66.1,48.0,30.06,ENE,75,2.0,2.0,52,0.00,,,0.00,Wunderground v.1.15,2013-06-03 23:20:00,
2013-06-03 18:25:00,66.1,48.5,30.06,ENE,75,0.0,2.0,53,0.00,,,0.00,Wunderground v.1.15,2013-06-03 23:25:00,
2013-06-03 18:35:00,65.9,47.3,30.06,ENE,61,1.0,1.0,51,0.00,,,0.00,Wunderground v.1.15,2013-06-03 23:35:00,
2013-06-03 18:40:00,65.8,46.6,30.07,ENE,73,1.0,1.0,50,0.00,,,0.00,Wunderground v.1.15,2013-06-03 23:40:00,
2013-06-03 18:50:00,65.6,48.0,30.07,ENE,70,1.0,3.0,53,0.00,,,0.00,Wunderground v.1.15,2013-06-03 23:50:00,
2013-06-03 18:55:00,65.5,47.9,30.07,ENE,69,1.0,3.0,53,0.00,,,0.00,Wunderground v.1.15,2013-06-03 23:55:00,
2013-06-03 19:05:00,65.3,48.2,30.07,ENE,69,0.0,0.0,54,0.00,,,0.00,Wunderground v.1.15,2013-06-04 00:05:00,
2013-06-03 19:15:00,65.0,46.4,30.07,ENE,63,1.0,1.0,51,0.00,,,0.00,Wunderground v.1.15,2013-06-04 00:15:00,
2013-06-03 19:20:00,64.9,47.9,30.07,ENE,63,0.0,0.0,54,0.00,,,0.00,Wunderground v.1.15,2013-06-04 00:20:00,
2013-06-03 19:25:00,64.8,48.2,30.07,ENE,63,0.0,0.0,55,0.00,,,0.00,Wunderground v.1.15,2013-06-04 00:25:00,
2013-06-03 19:35:00,64.4,48.4,30.07,NE,55,0.0,0.0,56,0.00,,,0.00,Wunderground v.1.15,2013-06-04 00:35:00,
2013-06-03 19:45:00,64.0,48.0,30.07,NE,54,0.0,2.0,56,0.00,,,0.00,Wunderground v.1.15,2013-06-04 00:45:00,
2013-06-03 19:50:00,63.8,47.8,30.07,ENE,64,1.0,1.0,56,0.00,,,0.00,Wunderground v.1.15,2013-06-04 00:50:00,
2013-06-03 20:00:00,63.4,48.4,30.08,ENE,63,0.0,0.0,58,0.00,,,0.00,Wunderground v.1.15,2013-06-04 01:00:00,
2013-06-03 20:05:00,63.1,48.5,30.08,ENE,63,0.0,0.0,59,0.00,,,0.00,Wunderground v.1.15,2013-06-04 01:05:00,
2013-06-03 20:15:00,62.5,48.9,30.08,ENE,64,0.0,0.0,61,0.00,,,0.00,Wunderground v.1.15,2013-06-04 01:15:00,
2013-06-03 20:20:00,62.2,49.0,30.08,ENE,63,0.0,0.0,62,0.00,,,0.00,Wunderground v.1.15,2013-06-04 01:20:00,
2013-06-03 20:30:00,61.4,49.1,30.08,ENE,64,0.0,0.0,64,0.00,,,0.00,Wunderground v.1.15,2013-06-04 01:30:00,
2013-06-03 20:40:00,60.8,49.4,30.09,ENE,63,0.0,0.0,66,0.00,,,0.00,Wunderground v.1.15,2013-06-04 01:40:00,
2013-06-03 20:45:00,60.5,49.5,30.09,ENE,63,0.0,0.0,67,0.00,,,0.00,Wunderground v.1.15,2013-06-04 01:45:00,
2013-06-03 20:50:00,60.2,49.2,30.09,ENE,63,0.0,0.0,67,0.00,,,0.00,Wunderground v.1.15,2013-06-04 01:50:00,
2013-06-03 21:00:00,59.6,49.4,30.10,ENE,64,0.0,0.0,69,0.00,,,0.00,Wunderground v.1.15,2013-06-04 02:00:00,
2013-06-03 21:10:00,59.1,48.9,30.10,ENE,64,0.0,0.0,69,0.00,,,0.00,Wunderground v.1.15,2013-06-04 02:10:00,
2013-06-03 21:20:00,58.7,49.3,30.10,ENE,64,0.0,0.0,71,0.00,,,0.00,Wunderground v.1.15,2013-06-04 02:20:00,
2013-06-03 21:25:00,58.5,49.1,30.10,ENE,63,0.0,0.0,71,0.00,,,0.00,Wunderground v.1.15,2013-06-04 02:25:00,
2013-06-03 21:30:00,58.3,49.3,30.10,ENE,64,0.0,0.0,72,0.00,,,0.00,Wunderground v.1.15,2013-06-04 02:30:00,
2013-06-03 21:40:00,57.9,49.3,30.11,ENE,64,0.0,0.0,73,0.00,,,0.00,Wunderground v.1.15,2013-06-04 02:40:00,
2013-06-03 21:50:00,57.6,49.0,30.11,ENE,64,0.0,0.0,73,0.00,,,0.00,Wunderground v.1.15,2013-06-04 02:50:00,
2013-06-03 21:55:00,57.4,48.8,30.11,ENE,64,0.0,0.0,73,0.00,,,0.00,Wunderground v.1.15,2013-06-04 02:55:00,
2013-06-03 22:05:00,57.2,48.6,30.11,ENE,64,0.0,0.0,73,0.00,,,0.00,Wunderground v.1.15,2013-06-04 03:05:00,
2013-06-03 22:15:00,57.0,48.4,30.11,ENE,63,0.0,0.0,73,0.00,,,0.00,Wunderground v.1.15,2013-06-04 03:15:00,
2013-06-03 22:20:00,56.9,48.7,30.11,ENE,63,0.0,0.0,74,0.00,,,0.00,Wunderground v.1.15,2013-06-04 03:20:00,
2013-06-03 22:30:00,56.6,48.8,30.11,ENE,63,0.0,0.0,75,0.00,,,0.00,Wunderground v.1.15,2013-06-04 03:30:00,
2013-06-03 22:40:00,56.3,48.1,30.11,ENE,63,0.0,0.0,74,0.00,,,0.00,Wunderground v.1.15,2013-06-04 03:40:00,
2013-06-03 22:45:00,56.2,48.0,30.11,ENE,63,0.0,0.0,74,0.00,,,0.00,Wunderground v.1.15,2013-06-04 03:45:00,
2013-06-03 22:55:00,56.1,47.9,30.11,ENE,64,0.0,0.0,74,0.00,,,0.00,Wunderground v.1.15,2013-06-04 03:55:00,
2013-06-03 23:05:00,56.0,47.5,30.11,ENE,64,0.0,0.0,73,0.00,,,0.00,Wunderground v.1.15,2013-06-04 04:05:00,
2013-06-03 23:10:00,56.0,47.5,30.11,ENE,64,0.0,0.0,73,0.00,,,0.00,Wunderground v.1.15,2013-06-04 04:10:00,
2013-06-03 23:15:00,55.9,47.4,30.11,ENE,64,0.0,0.0,73,0.00,,,0.00,Wunderground v.1.15,2013-06-04 04:15:00,
2013-06-03 23:20:00,55.9,47.4,30.11,ENE,64,0.0,0.0,73,0.00,,,0.00,Wunderground v.1.15,2013-06-04 04:20:00,
2013-06-03 23:30:00,55.8,47.3,30.11,ENE,66,0.0,0.0,73,0.00,,,0.00,Wunderground v.1.15,2013-06-04 04:30:00,
2013-06-03 23:35:00,55.7,47.2,30.11,ENE,64,0.0,0.0,73,0.00,,,0.00,Wunderground v.1.15,2013-06-04 04:35:00,
2013-06-03 23:45:00,55.7,47.2,30.11,ENE,65,0.0,0.0,73,0.00,,,0.00,Wunderground v.1.15,2013-06-04 04:45:00,
2013-06-03 23:50:00,55.6,46.7,30.10,ENE,65,0.0,0.0,72,0.00,,,0.00,Wunderground v.1.15,2013-06-04 04:50:00,